Location: Byszew
(52.1813°N, 19.2693°E)
Time: 19:44:13
(UTC+00:00)

Cosmos 2218 Rocket - Pass Details

Date: 03 March 2021
Orbit: 955 x 1007 km, 82.9° (Epoch: 15 April)

Event Time Altitude Azimuth Distance (km) Brightness Sun altitude
Rises 18:49:08 0° 190° (S) 3,724 7.0 -22.4°
Reaches altitude 10° 18:51:39 10° 191° (SSW) 2,779 6.3 -22.8°
Maximum altitude 18:58:04 83° 279° (W) 1,020 4.1 -23.7°
Drops below altitude 10° 19:04:31 10° 9° (N) 2,787 6.5 -24.6°
Sets 19:07:03 0° 11° (N) 3,736 7.2 -25.0°
